Location: ČR
(50.0000°N, 15.0000°E)
Time: 15:12:48
(UTC+00:00)

Tiangong - Visible Passes

Search period start: 25 September 2021 00:00
Search period end: 05 October 2021 00:00
Orbit: 382 x 385 km, 41.5° (Epoch: 25 September)

Date Brightness Start Highest point End Pass type
(mag) Time Alt. Az. Time Alt. Az. Time Alt. Az.
28 Sep 3.8 03:39:31 10° S 03:40:29 11° SSE 03:41:28 10° SE visible
29 Sep 3.4 04:14:47 10° SSW 04:16:52 16° S 04:18:57 10° SE visible
30 Sep 3.4 03:16:39 14° S 03:17:10 14° SSE 03:18:56 10° SE visible
01 Oct 3.2 03:51:49 12° SW 03:53:35 18° S 03:55:48 10° SE visible
02 Oct 3.5 02:54:46 15° SSE 02:54:46 15° SSE 02:55:57 10° SE visible
03 Oct 3.0 03:29:56 17° SSW 03:30:17 17° S 03:32:29 10° SE visible
04 Oct 3.4 04:05:07 10° SW 04:06:40 13° SSW 04:08:17 10° SSE visible
